Meteopurmerend
purmerend
Purmerend - Baaienwijk



My webcam  My webcam


waarschuwing voor Onweer Meer informatie blitzortung!


Regen radar Meer informatie rain snow radar


Bezoek onze andere website:

CandyAppleRed WebdesignWebdesign Purmerend Candy Apple Red

MeteopurmerendBlog

Template documentation
and downloads



Onweer van: 26-07-2021 13:00 tot: 21:00 waarschuwing voor: Onweer niveau: Geel info button
Enkele onweersbuien, lokaal met hagel en veel neerslag in korte tijd.Kans op blikseminslag, hagel en veel neerslag in korte tijd.Verkeer en buitenactiviteiten kunnen hinder ondervinden.Mijd open water en open gebied, schuil niet onder bomen.Volg weerberichten en waarschuwingen.

15 daagse weersverwachting Luzern (CH)

  • Overzicht
  • Per uur
  • 15 dagen
  • Extra
  • Vergelijk
  • Kaarten
  • Dagkaart
  • Meer »
  • Info
  • Statistieken
  • Directe link
    Temp 6h Neerslag Wind  
 06:01     21:07    Daglengte: 15:06 Vandaag
20:00
19°
10.1 mm
1
 06:02     21:05    Daglengte: 15:03 Morgen
02:00
17°
1.3 mm
1
08:00
17°
 
1
14:00
22°
 
1
20:00
21°
1.5 mm
1
 06:03     21:04    Daglengte: 15:01 Woensdag 28 Jul
02:00
18°
12.9 mm
1
08:00
17°
18.8 mm
1
14:00
20°
20.8 mm
1
20:00
20°
25.1 mm
1
 06:04     21:03    Daglengte: 14:59 Donderdag 29 Jul
02:00
17°
9.7 mm
1
08:00
18°
 
1
14:00
22°
 
2
Locatie info
Region: Luzern-Stadt
Latitude: 47.0495°N
Longitude: 8.3044°E
437 masl
Postcode: 6003
Temp/Neerslag /Baro Onweer/Dauwpunt
    Temp Baro 1h Neerslag Dauwpunt Wind UV Bewolking  
 06:01     21:07    Daglengte: 15:06 Vandaag
17:00
20°
1014.3 hPa 4.4 mm
48%
17.6°
2
Windvlaag: -0.4 m/s
65%
18:00
20°
1014.7 hPa 2.0 mm
82%
17.2°
1
Windvlaag: -0.9 m/s
62% warningclass
19:00
19°
1014.9 hPa 2.2 mm
82%
16.8°
1
Windvlaag: 1.2 m/s
59%
20:00
19°
1015.3 hPa 1.5 mm
82%
16.7°
1
Windvlaag: 3 m/s
52%
21:00
19°
1015.5 hPa 1.3 mm
67%
16.7°
1
Windvlaag: 3.6 m/s
47%
22:00
18°
1016.3 hPa
18%
16.4°
1
Windvlaag: 2.8 m/s
18%
23:00
18°
1016.4 hPa
17%
15.9°
1
Windvlaag: 2.2 m/s
16%
 06:02     21:05    Daglengte: 15:03 Morgen
00:00
17°
1016.8 hPa
14%
15.2°
1
Windvlaag: 0.9 m/s
15%
01:00
17°
1017.1 hPa
15%
14.7°
1
Windvlaag: 0.9 m/s
40%
02:00
17°
1017.0 hPa
14%
14.3°
1
Windvlaag: 2 m/s
18%
03:00
16°
1016.8 hPa
14%
13.9°
1
Windvlaag: 2 m/s
15%
04:00
16°
1016.6 hPa
14%
13.4°
2
Windvlaag: 2 m/s
10%
05:00
16°
1016.2 hPa
16%
13.2°
2
Windvlaag: 2.1 m/s
5%
06:00
15°
1016.1 hPa
14%
12.8°
1
Windvlaag: 2 m/s
15%
07:00
16°
1016.4 hPa
14%
13.0°
1
Windvlaag: 1.7 m/s
22%
08:00
17°
1016.4 hPa
14%
13.7°
1
Windvlaag: 1.6 m/s
43%
09:00
18°
1016.3 hPa
14%
15.2°
1
Windvlaag: 1.7 m/s
14%
10:00
19°
1016.0 hPa
14%
16.0°
1
Windvlaag: 0.9 m/s
45%
11:00
20°
1015.9 hPa
14%
16.4°
1
Windvlaag: -1.3 m/s
20%
12:00
21°
1015.7 hPa
14%
16.0°
1
Windvlaag: -1.5 m/s
66%
13:00
22°
1015.2 hPa
16%
16.1°
1
Windvlaag: -1.8 m/s
73%
14:00
22°
1014.9 hPa
21%
16.3°
1
Windvlaag: -2.1 m/s
73%
15:00
23°
1014.5 hPa
25%
16.6°
1
Windvlaag: -0.7 m/s
77%
16:00
23°
1014.2 hPa
25%
16.7°
1
Windvlaag: -0.1 m/s
82%
17:00
23°
1014.0 hPa 1.5 mm
67%
16.4°
0
Windvlaag: 2.7 m/s
56%
18:00
22°
1014.1 hPa
33%
16.7°
1
Windvlaag: 2.9 m/s
83%
19:00
22°
1014.1 hPa
30%
16.7°
1
Windvlaag: 2.4 m/s
86%
20:00
21°
1014.3 hPa
38%
16.7°
1
Windvlaag: 2.9 m/s
85%
21:00
20°
1014.5 hPa 1.8 mm
82%
16.9°
1
Windvlaag: 3.7 m/s
83%
22:00
19°
1015.0 hPa 2.5 mm
82%
16.9°
1
Windvlaag: 4.2 m/s
84%
23:00
19°
1015.1 hPa 2.4 mm
81%
17.0°
2
Windvlaag: 4.4 m/s
80%
 06:03     21:04    Daglengte: 15:01 Woensdag 28 Jul
00:00
19°
1015.3 hPa 2.4 mm
82%
16.6°
1
Windvlaag: 3.9 m/s
63%
01:00
18°
1015.6 hPa 1.9 mm
82%
15.9°
2
Windvlaag: 1.8 m/s
80%
02:00
18°
1015.8 hPa 1.9 mm
82%
15.1°
1
Windvlaag: 0.5 m/s
69%
03:00
17°
1016.0 hPa 2.2 mm
82%
14.5°
1
Windvlaag: 1.5 m/s
68%
04:00
17°
1015.9 hPa 3.3 mm
82%
14.5°
1
Windvlaag: 0.9 m/s
86%
05:00
17°
1016.0 hPa 3.4 mm
82%
14.5°
1
Windvlaag: -0.2 m/s
86%
06:00
17°
1016.2 hPa 3.3 mm
82%
14.5°
1
Windvlaag: 0 m/s
80% warningclass
07:00
17°
1016.3 hPa 3.4 mm
82%
14.6°
1
Windvlaag: 1.1 m/s
74% warningclass
08:00
17°
1016.4 hPa 3.1 mm
82%
14.3°
1
Windvlaag: 0.8 m/s
70%
09:00
17°
1016.4 hPa
82%
13.7°
1
Windvlaag: 0.9 m/s
77%
10:00
18°
1016.5 hPa 4.0 mm
82%
14.0°
1
Windvlaag: -0.7 m/s
80%
11:00
18°
1016.0 hPa 5.4 mm
95%
13.1°
1
Windvlaag: -1 m/s
99%
12:00
19°
1016.1 hPa 4.7 mm
100%
11.9°
1
Windvlaag: 0.1 m/s
96% warningclass
13:00
19°
1015.8 hPa 3.8 mm
100%
12.1°
1
Windvlaag: 0.3 m/s
88% warningclass
14:00
20°
1015.6 hPa 2.9 mm
100%
12.0°
1
Windvlaag: 0.2 m/s
95%
15:00
20°
1015.5 hPa 3.4 mm
100%
12.1°
1
Windvlaag: -1.5 m/s
79% warningclass
16:00
20°
1015.5 hPa 3.4 mm
100%
13.2°
1
Windvlaag: -2 m/s
95% warningclass
17:00
20°
1015.5 hPa 3.2 mm
100%
14.4°
1
Windvlaag: -1.5 m/s
85% warningclass
18:00
20°
1015.3 hPa 5.2 mm
100%
13.9°
1
Windvlaag: 0.6 m/s
60%
19:00
20°
1015.0 hPa 4.9 mm
95%
14.0°
1
Windvlaag: 1.8 m/s
31%
20:00
20°
1015.3 hPa 5.0 mm
95%
14.6°
1
Windvlaag: 1.7 m/s
24%
21:00
19°
1015.5 hPa 4.9 mm
84%
15.0°
1
Windvlaag: 1.5 m/s
52%
22:00
18°
1015.8 hPa 4.9 mm
77%
15.6°
1
Windvlaag: 0.8 m/s
56%
23:00
18°
1015.9 hPa
35%
15.2°
1
Windvlaag: 0.6 m/s
56%
 06:04     21:03    Daglengte: 14:59 Donderdag 29 Jul
00:00
18°
1015.9 hPa
37%
14.7°
1
Windvlaag: 0.6 m/s
54%
01:00
18°
1015.7 hPa
32%
14.0°
1
Windvlaag: 0.8 m/s
27%
02:00
17°
1015.4 hPa
25%
13.8°
1
Windvlaag: 1.2 m/s
57%
03:00
17°
1015.2 hPa
26%
13.4°
1
Windvlaag: 1.3 m/s
63%
04:00
17°
1015.2 hPa
42%
13.4°
1
Windvlaag: 1.2 m/s
66%
05:00
16°
1015.3 hPa
77%
13.6°
1
Windvlaag: 1.2 m/s
66%
06:00
17°
1015.4 hPa
37%
14.3°
1
Windvlaag: 1.1 m/s
69%
07:00
17°
1015.6 hPa
39%
14.1°
1
Windvlaag: 1.1 m/s
67%
08:00
18°
1015.6 hPa
36%
14.8°
1
Windvlaag: 1.4 m/s
68%
09:00
19°
1015.8 hPa
30%
15.9°
1
Windvlaag: 3.1 m/s
68%
10:00
20°
1015.6 hPa
25%
15.8°
1
Windvlaag: 5.2 m/s
70%
11:00
20°
1015.7 hPa
23%
15.9°
2
Windvlaag: 3.6 m/s
66%
12:00
21°
1015.6 hPa
21%
15.3°
2
Windvlaag: 5.5 m/s
69%
13:00
22°
1015.4 hPa
22%
15.0°
2
Windvlaag: 5.2 m/s
68%
14:00
22°
1014.8 hPa
21%
15.1°
2
Windvlaag: 5.6 m/s
72%
Temp/Neerslag /Baro Onweer/Dauwpunt
    Temp Baro Neerslag Dauwpunt Wind Bewolking  
 06:01     21:07    Daglengte: 15:06 Vandaag
17:00
20°
1014.3 hPa 4.4 mm 17.6°
2
65%
20:00
19°
1015.3 hPa 5.7 mm 16.7°
1
52%
23:00
18°
1016.4 hPa 1.3 mm 15.9°
1
16%
 06:02     21:05    Daglengte: 15:03 Morgen
02:00
17°
1017.0 hPa   14.3°
1
18%
05:00
16°
1016.2 hPa   13.2°
2
5%
08:00
17°
1016.4 hPa   13.7°
1
43%
11:00
20°
1015.9 hPa   16.4°
1
20%
14:00
22°
1014.9 hPa   16.3°
1
73%
17:00
23°
1014.0 hPa 1.5 mm 16.4°
0
56%
20:00
21°
1014.3 hPa   16.7°
1
85%
23:00
19°
1015.1 hPa 6.8 mm 17.0°
2
80%
 06:03     21:04    Daglengte: 15:01 Woensdag 28 Jul
02:00
18°
1015.8 hPa 6.1 mm 15.1°
1
69%
05:00
17°
1016.0 hPa 8.9 mm 14.5°
1
86%
08:00
17°
1016.4 hPa 9.9 mm 14.3°
1
70%
11:00
18°
1016.0 hPa 9.4 mm 13.1°
1
99%
14:00
20°
1015.6 hPa 11.4 mm 12.0°
1
95%
17:00
20°
1015.5 hPa 10.0 mm 14.4°
1
85% warningclass
20:00
20°
1015.3 hPa 15.1 mm 14.6°
1
24%
23:00
18°
1015.9 hPa 9.7 mm 15.2°
1
56%
 06:04     21:03    Daglengte: 14:59 Donderdag 29 Jul
02:00
17°
1015.4 hPa   13.8°
1
57%
05:00
16°
1015.3 hPa   13.6°
1
66%
08:00
18°
1015.6 hPa   14.8°
1
68%
11:00
20°
1015.7 hPa   15.9°
2
66%
14:00
22°
1014.8 hPa   15.1°
2
72%
17:00
23°
1014.9 hPa 29.7 mm 18.7°
1
1%
20:00
21°
1014.4 hPa 29.7 mm 19.3°
1
1%
23:00
17°
1015.5 hPa 32.6 mm 16.8°
0
0%
 06:06     21:01    Daglengte: 14:55 Vrijdag 30 Jul
02:00
17°
1015.6 hPa 37.4 mm 17.1°
1
1%
05:00
16°
1014.8 hPa 38.2 mm 15.5°
1
1%
08:00
18°
1014.5 hPa 38.2 mm 17.0°
1
0%
11:00
24°
1012.7 hPa 38.3 mm 17.8°
1
0%
14:00
27°
1010.6 hPa 38.4 mm 18.3°
2
0%
17:00
25°
1010.5 hPa 41.4 mm 22.7°
1
0%
20:00
22°
1010.0 hPa 42.9 mm 19.9°
1
1%
23:00
18°
1012.6 hPa 54.3 mm 17.4°
2
1%
 06:07     21:00    Daglengte: 14:53 Zaterdag 31 Jul
02:00
17°
1012.3 hPa 54.5 mm 15.3°
2
1%
05:00
15°
1012.6 hPa 56.9 mm 14.6°
1
1%
08:00
18°
1012.5 hPa 57.9 mm 16.4°
1
1%
11:00
20°
1012.1 hPa 58.4 mm 18.1°
2
1%
14:00
20°
1011.9 hPa 59.0 mm 17.4°
2
1%
17:00
20°
1012.1 hPa 59.7 mm 17.1°
0
1%
20:00
17°
1013.0 hPa 60.9 mm 16.7°
1
1%
23:00
15°
1014.2 hPa 61.8 mm 14.4°
1
1%
 06:08     20:59    Daglengte: 14:51 Zondag 01 Aug
02:00
14°
1013.4 hPa 61.9 mm 13.3°
1
1%
05:00
14°
1012.3 hPa 62.3 mm 13.0°
1
1%
08:00
13°
1012.3 hPa 70.5 mm 13.0°
1
1%
11:00
13°
1014.8 hPa 81.7 mm 12.1°
3
1%
14:00
21°
1012.7 hPa 82.4 mm 10.7°
1
1%
17:00
19°
1012.5 hPa 83.1 mm 13.2°
3
1%
20:00
16°
1013.9 hPa 85.6 mm 14.6°
2
1%
23:00
13°
1016.2 hPa 86.7 mm 12.0°
2
0%
 06:09     20:57    Daglengte: 14:48 Maandag 02 Aug
02:00
14°
1016.6 hPa 87.2 mm 12.8°
1
1%
05:00
12°
1016.6 hPa 87.3 mm 10.8°
1
0%
08:00
14°
1017.1 hPa 87.3 mm 12.7°
1
0%
11:00
19°
1016.7 hPa 87.4 mm 12.4°
1
0%
14:00
21°
1016.2 hPa 175.2 mm 13.5°
2
0%
20:00
18°
1016.5 hPa 176.2 mm 15.0°
1
0%
 06:11     20:56    Daglengte: 14:45 Dinsdag 03 Aug
02:00
13°
1018.1 hPa 176.4 mm 11.8°
2
0%
08:00
16°
1018.8 hPa 176.4 mm 12.8°
1
0%
14:00
23°
1017.4 hPa 177.0 mm 12.9°
1
0%
20:00
19°
1017.6 hPa 178.5 mm 16.2°
0
1%
 06:12     20:55    Daglengte: 14:43 Woensdag 04 Aug
02:00
15°
1018.8 hPa 179.0 mm 13.0°
2
1%
08:00
17°
1017.7 hPa 179.0 mm 13.7°
1
1%
14:00
28°
Voelt als: 27.6°
1014.5 hPa 179.0 mm 13.0°
2
0%
20:00
22°
1015.0 hPa 179.5 mm 17.1°
1
1%
 06:13     20:53    Daglengte: 14:40 Donderdag 05 Aug
02:00
17°
1015.4 hPa 180.8 mm 15.6°
2
1%
08:00
18°
1014.0 hPa 182.3 mm 16.1°
1
1%
14:00
23°
1014.0 hPa 2.2 mm 15.9°
2
61%
20:00
19°
1013.0 hPa 3.7 mm 16.5°
0
77%
 06:14     20:52    Daglengte: 14:38 Vrijdag 06 Aug
02:00
16°
1013.4 hPa 2.8 mm 14.1°
1
76%
08:00
16°
1012.7 hPa 3.6 mm 14.3°
1
72%
14:00
20°
1011.6 hPa 3.5 mm 15.7°
2
78%
20:00
17°
1011.5 hPa 4.8 mm 15.6°
1
81%
 06:16     20:50    Daglengte: 14:34 Zaterdag 07 Aug
02:00
14°
1013.0 hPa 4.8 mm 13.1°
1
78%
08:00
14°
1013.0 hPa 2.8 mm 13.3°
1
75%
14:00
19°
1012.3 hPa 2.6 mm 14.4°
2
66%
20:00
16°
1013.4 hPa 4.1 mm 14.1°
1
73%
 06:17     20:48    Daglengte: 14:31 Zondag 08 Aug
02:00
13°
1015.9 hPa 2.9 mm 11.4°
2
71%
08:00
14°
1016.2 hPa 0.6 mm 12.3°
1
60%
14:00
20°
1015.3 hPa 0.7 mm 13.2°
2
62%
20:00
17°
1016.2 hPa 1.6 mm 14.5°
1
56%
 06:18     20:47    Daglengte: 14:29 Maandag 09 Aug
02:00
13°
1018.4 hPa   11.8°
2
52%
08:00
15°
1018.3 hPa 0.7 mm 12.4°
1
49%
14:00
21°
1017.3 hPa 0.8 mm 14.6°
2
52%
20:00
18°
1018.0 hPa 1.1 mm 15.3°
0
55%
 06:19     20:45    Daglengte: 14:26 Dinsdag 10 Aug
02:00
14°
1020.0 hPa 0.8 mm 12.4°
1
54%
08:00
15°
1019.8 hPa 0.6 mm 13.0°
1
52%
14:00
22°
1018.4 hPa 0.9 mm 15.0°
2
54%
  CAPE Lifted Index Hail Supercell Tornado SRH 3km CL BTM PRES CL TOP PRES Swiss DWD icon SMHI TS
 06:01     21:07    Daglengte: 15:06 Vandaag
17:00 553 J/kg -1.8 K 0 % 0 % 0 % 0 m²/s² 0 0 -1.5 95
18:00 84 J/kg -1.4 K 0 % 0 % 0 % 0 m²/s² 0 0 -0.41 95
19:00 93 J/kg -2.0 K 0 % 0 % 0 % 0 m²/s² 0 0 -0.56 80
20:00 184 J/kg -1.0 K 0 % 0 % 0 % 0 m²/s² 0 0 -1 3
21:00 368 J/kg -2.0 K 0 % 0 % 0 % 0 m²/s² 0 0 -0.35 3
22:00 85 J/kg -1.1 K 0 % 0 % 0 % 0 m²/s² 0 0 1.57 2
23:00 0 J/kg -0.8 K 0 % 0 % 0 % 0 m²/s² 0 0 1.72 2
 06:02     21:05    Daglengte: 15:03 Morgen
00:00 0 J/kg -0.7 K 0 % 0 % 0 % 0 m²/s² 0 0 0.95 2
01:00 31 J/kg -0.4 K 0 % 0 % 0 % 0 m²/s² 0 0 1.97 2
02:00 113 J/kg -0.6 K 0 % 0 % 0 % 0 m²/s² 0 0 2.55 2
03:00 9 J/kg -0.5 K 0 % 0 % 0 % 0 m²/s² 0 0 2.74 2
04:00 3 J/kg 0.6 K 0 % 0 % 0 % 0 m²/s² 0 0 3.6 2
05:00 0 J/kg 1.0 K 0 % 0 % 0 % 0 m²/s² 0 0 3.82 2
06:00 0 J/kg 1.6 K 0 % 0 % 0 % 0 m²/s² 0 0 4.42 2
07:00 0 J/kg 2.5 K 0 % 0 % 0 % 0 m²/s² 0 0 5.32 2
08:00 0 J/kg 2.9 K 0 % 0 % 0 % 0 m²/s² 0 0 5.72 45
09:00 0 J/kg 2.6 K 0 % 0 % 0 % 0 m²/s² 0 0 4.88 2
10:00 0 J/kg 1.2 K 0 % 0 % 0 % 0 m²/s² 0 0 3.51 3
11:00 66 J/kg 0.7 K 0 % 0 % 0 % 0 m²/s² 0 0 2.71 2
12:00 111 J/kg -0.1 K 0 % 0 % 0 % 0 m²/s² 0 0 2.33 3
13:00 212 J/kg -1.2 K 0 % 0 % 0 % 0 m²/s² 0 0 1.11 3
14:00 246 J/kg -1.2 K 0 % 0 % 0 % 0 m²/s² 0 0 0.45 3
15:00 266 J/kg -1.4 K 0 % 0 % 0 % 0 m²/s² 0 0 -0.14 3
16:00 314 J/kg -1.8 K 0 % 0 % 0 % 0 m²/s² 0 0 -0.75 3
17:00 319 J/kg -2.0 K 0 % 0 % 0 % 0 m²/s² 0 0 -1.34 80
18:00 310 J/kg -1.8 K 0 % 0 % 0 % 0 m²/s² 0 0 -1.71 3
19:00 281 J/kg -1.6 K 0 % 0 % 0 % 0 m²/s² 0 0 -1.21 3
20:00 425 J/kg -2.2 K 0 % 0 % 0 % 0 m²/s² 0 0 -1.75 3
21:00 421 J/kg -2.2 K 0 % 0 % 0 % 0 m²/s² 0 0 -1.99 61
22:00 256 J/kg -1.8 K 0 % 0 % 0 % 0 m²/s² 0 0 -1.26 61
23:00 127 J/kg -1.9 K 0 % 0 % 0 % 0 m²/s² 0 0 -1.03 61
 06:03     21:04    Daglengte: 15:01 Woensdag 28 Jul
00:00 15 J/kg -1.7 K 0 % 0 % 0 % 0 m²/s² 0 0 -0.53 3
01:00 0 J/kg -1.1 K 0 % 0 % 0 % 0 m²/s² 0 0 -0.08 80
02:00 0 J/kg -0.9 K 0 % 0 % 0 % 0 m²/s² 0 0 -0.69 80
03:00 5 J/kg 0.5 K 0 % 0 % 0 % 0 m²/s² 0 0 0.5 80
04:00 0 J/kg 1.6 K 0 % 0 % 0 % 0 m²/s² 0 0 2.32 80
05:00 0 J/kg 2.6 K 0 % 0 % 0 % 0 m²/s² 0 0 3.62 3
06:00 0 J/kg 1.7 K 0 % 0 % 0 % 0 m²/s² 0 0 2.87 95
07:00 0 J/kg 2.1 K 0 % 0 % 0 % 0 m²/s² 0 0 3.66 95
08:00 0 J/kg 2.4 K 0 % 0 % 0 % 0 m²/s² 0 0 3.99 80
09:00 0 J/kg 1.6 K 0 % 0 % 0 % 0 m²/s² 0 0 2.77 61
10:00 16 J/kg 1.0 K 0 % 0 % 0 % 0 m²/s² 0 0 2.2 63
11:00 99 J/kg -0.1 K 0 % 0 % 0 % 0 m²/s² 0 0 1.43 3
12:00 476 J/kg -1.6 K 0 % 0 % 0 % 0 m²/s² 0 0 0.71 95
13:00 743 J/kg -2.8 K 0 % 0 % 0 % 0 m²/s² 0 0 0.47 95
14:00 736 J/kg -3.0 K 0 % 0 % 0 % 0 m²/s² 0 0 0.93 80
15:00 602 J/kg -2.8 K 0 % 0 % 0 % 0 m²/s² 0 0 0.68 95
16:00 591 J/kg -2.7 K 0 % 0 % 0 % 0 m²/s² 0 0 -0.57 95
17:00 596 J/kg -2.5 K 0 % 0 % 0 % 0 m²/s² 0 0 -0.76 95
18:00 607 J/kg -2.6 K 0 % 0 % 0 % 0 m²/s² 0 0 -0.53 80
19:00 559 J/kg -2.3 K 0 % 0 % 0 % 0 m²/s² 0 0 -0.11 2
20:00 583 J/kg -2.2 K 0 % 0 % 0 % 0 m²/s² 0 0 -0.01 80
21:00 538 J/kg -2.0 K 0 % 0 % 0 % 0 m²/s² 0 0 -0.05 80
22:00 278 J/kg -1.4 K 0 % 0 % 0 % 0 m²/s² 0 0 0.22 80
23:00 40 J/kg -0.8 K 0 % 0 % 0 % 0 m²/s² 0 0 0.82 2
 06:04     21:03    Daglengte: 14:59 Donderdag 29 Jul
00:00 0 J/kg -0.6 K 0 % 0 % 0 % 0 m²/s² 0 0 0.51 3
01:00 0 J/kg -0.6 K 0 % 0 % 0 % 0 m²/s² 0 0 1.29 2
02:00 0 J/kg -0.7 K 0 % 0 % 0 % 0 m²/s² 0 0 1.58 3
03:00 0 J/kg -0.7 K 0 % 0 % 0 % 0 m²/s² 0 0 1.58 2
04:00 0 J/kg -0.8 K 0 % 0 % 0 % 0 m²/s² 0 0 1.27 3
05:00 0 J/kg -0.7 K 0 % 0 % 0 % 0 m²/s² 0 0 1.43 3
06:00 0 J/kg -0.7 K 0 % 0 % 0 % 0 m²/s² 0 0 1.16 2
07:00 0 J/kg -0.3 K 0 % 0 % 0 % 0 m²/s² 0 0 1.98 2
08:00 13 J/kg 0.4 K 0 % 0 % 0 % 0 m²/s² 0 0 2.8 3
09:00 68 J/kg 0.4 K 0 % 0 % 0 % 0 m²/s² 0 0 1.33 3
10:00 253 J/kg -0.5 K 0 % 0 % 0 % 0 m²/s² 0 0 3.49 3
11:00 360 J/kg -0.9 K 0 % 0 % 0 % 0 m²/s² 0 0 4.26 3
12:00 491 J/kg -1.2 K 0 % 0 % 0 % 0 m²/s² 0 0 4.23 3
13:00 602 J/kg -1.7 K 0 % 0 % 0 % 0 m²/s² 0 0 3.31 3
14:00 787 J/kg -2.3 K 0 % 0 % 0 % 0 m²/s² 0 0 1.81 2
Temp Baro Wind Neerslag
  EWN Forecast EWN WRFDA DWD ICON FMI HIRLAM MET Norway GFS
 06:01     21:07    Daglengte: 15:06 Vandaag
17:00 20.2° 1014.3 hPa 1.6 m/s 4.4 mm 20.6° 1012.2 hPa 6.1 m/s 3.9 mm 19.7° 1014.5 hPa 1.0 m/s 2.1 mm 21.5° 1014.4 hPa 2.3 m/s 0.0 mm 19.4° 1014.4 hPa 0.8 m/s
20:00 19.2° 1015.3 hPa 0.9 m/s 5.7 mm 19.4° 1013.1 hPa 0.4 m/s 12.1 mm 19.1° 1015.2 hPa 0.3 m/s 2.6 mm 20.6° 1015.6 hPa 0.9 m/s 0.0 mm 18.2° 1015.3 hPa 1.3 m/s
23:00 17.7° 1016.4 hPa 1.3 m/s 1.3 mm 15.9° 1014.4 hPa 2.5 m/s 16.9 mm 17.8° 1016.4 hPa 0.4 m/s 0.1 mm 18.9° 1018.0 hPa 1.3 m/s 0.0 mm 15.6° 1016.9 hPa 1.6 m/s
 06:02     21:05    Daglengte: 15:03 Morgen
02:00 16.8° 1017.0 hPa 1.4 m/s 0.0 mm 16.4° 1015.0 hPa 3.2 m/s 16.9 mm 15.4° 1016.6 hPa 0.7 m/s 0.0 mm 18.2° 1018.5 hPa 1.6 m/s 0.0 mm 14.8° 1017.5 hPa 1.9 m/s
05:00 15.7° 1016.2 hPa 1.6 m/s 0.0 mm 15.0° 1014.2 hPa 3.4 m/s 16.9 mm 14.6° 1016.2 hPa 1.0 m/s 0.0 mm 17.0° 1017.9 hPa 1.3 m/s 0.0 mm 14.2° 1016.6 hPa 1.5 m/s
08:00 16.8° 1016.4 hPa 1.1 m/s 0.0 mm 18.6° 1014.4 hPa 1.3 m/s 16.9 mm 15.8° 1016.5 hPa 0.5 m/s 0.0 mm 18.4° 1017.5 hPa 1.2 m/s 0.0 mm 16.9° 1016.1 hPa 0.6 m/s
11:00 20.1° 1015.9 hPa 1.1 m/s 0.0 mm 21.5° 1014.3 hPa 1.3 m/s 16.9 mm 20.1° 1015.8 hPa 0.5 m/s 0.0 mm 20.3° 1016.3 hPa 1.3 m/s 0.0 mm 21.9° 1014.5 hPa 1.7 m/s
14:00 22.1° 1014.9 hPa 1.1 m/s 0.0 mm 23.8° 1014.0 hPa 1.2 m/s 16.9 mm 22.1° 1014.5 hPa 0.9 m/s 0.0 mm 22.8° 1015.1 hPa 1.3 m/s 0.0 mm 23.6° 1013.9 hPa 1.7 m/s
17:00 22.6° 1014.0 hPa 0.5 m/s 1.5 mm 25.0° 1013.1 hPa 0.5 m/s 17.0 mm 22.3° 1013.9 hPa 0.4 m/s 0.3 mm 23.4° 1015.0 hPa 0.3 m/s 0.0 mm 22.2° 1014.0 hPa 0.8 m/s
20:00 21.4° 1014.3 hPa 1.4 m/s 0.0 mm 22.2° 1013.4 hPa 0.6 m/s 18.6 mm 21.6° 1013.8 hPa 0.9 m/s 0.0 mm 22.4° 1016.0 hPa 1.3 m/s 0.0 mm 18.6° 1015.2 hPa 1.0 m/s
23:00 19.1° 1015.1 hPa 1.7 m/s 6.8 mm 18.5° 1014.0 hPa 1.2 m/s 20.4 mm 19.0° 1014.7 hPa 1.8 m/s 1.6 mm 20.3° 1018.0 hPa 0.7 m/s 0.0 mm 17.3° 1016.2 hPa 0.9 m/s
 06:03     21:04    Daglengte: 15:01 Woensdag 28 Jul
02:00 17.9° 1015.8 hPa 1.1 m/s 6.1 mm 17.0° 1014.4 hPa 0.3 m/s 20.8 mm 17.6° 1015.5 hPa 1.0 m/s 1.5 mm 18.9° 1017.5 hPa 1.8 m/s 0.0 mm 15.8° 1015.8 hPa 1.0 m/s
05:00 17.2° 1016.0 hPa 0.7 m/s 8.9 mm 16.4° 1013.8 hPa 0.6 m/s 32.8 mm 17.4° 1015.3 hPa 0.5 m/s 1.3 mm 17.6° 1017.5 hPa 2.0 m/s 0.0 mm 15.6° 1016.4 hPa 1.3 m/s
08:00 17.1° 1016.4 hPa 0.5 m/s 9.9 mm 17.5° 1014.0 hPa 0.6 m/s 38.2 mm 16.9° 1015.8 hPa 0.5 m/s 3.7 mm 19.0° 1017.8 hPa 0.6 m/s 0.0 mm 16.2° 1016.2 hPa 0.9 m/s
11:00 18.2° 1016.0 hPa 0.8 m/s 9.4 mm 20.2° 1014.2 hPa 0.9 m/s 38.2 mm 18.1° 1016.1 hPa 0.7 m/s 4.7 mm 17.8° 1016.3 hPa 0.8 m/s
14:00 19.9° 1015.6 hPa 1.2 m/s 11.4 mm 23.9° 1013.0 hPa 2.4 m/s 38.4 mm 19.8° 1015.7 hPa 0.5 m/s 2.8 mm 22.4° 1015.9 hPa 0.9 m/s
17:00 20.4° 1015.5 hPa 0.8 m/s 10.0 mm 23.3° 1012.9 hPa 1.2 m/s 40.1 mm 20.6° 1015.6 hPa 0.7 m/s 2.1 mm 22.4° 1015.3 hPa 1.2 m/s
20:00 20.0° 1015.3 hPa 1.0 m/s 15.1 mm 23.1° 1012.6 hPa 1.0 m/s 42.6 mm 19.7° 1015.6 hPa 1.0 m/s 1.4 mm 20.3° 1015.5 hPa 0.6 m/s
23:00 17.9° 1015.9 hPa 0.8 m/s 9.7 mm 18.1° 1012.8 hPa 0.9 m/s 42.6 mm 18.3° 1016.6 hPa 0.6 m/s 0.4 mm 16.7° 1016.5 hPa 1.2 m/s
 06:04     21:03    Daglengte: 14:59 Donderdag 29 Jul
02:00 17.1° 1015.4 hPa 1.3 m/s 0.0 mm 17.1° 1012.2 hPa 1.4 m/s 42.6 mm 17.8° 1016.1 hPa 0.7 m/s 0.0 mm 15.6° 1016.2 hPa 1.7 m/s
05:00 16.4° 1015.3 hPa 1.3 m/s 0.0 mm 16.2° 1012.7 hPa 2.3 m/s 42.6 mm 17.6° 1015.7 hPa 0.1 m/s 0.0 mm 15.2° 1016.2 hPa 1.7 m/s
08:00 17.5° 1015.6 hPa 0.9 m/s 0.0 mm 19.2° 1013.2 hPa 0.7 m/s 42.7 mm 17.4° 1016.1 hPa 0.8 m/s 0.0 mm 18.1° 1015.9 hPa 0.9 m/s
11:00 20.4° 1015.7 hPa 1.7 m/s 0.0 mm 22.1° 1012.9 hPa 1.7 m/s 42.9 mm 19.9° 1016.4 hPa 1.7 m/s 0.0 mm 21.4° 1016.1 hPa 1.8 m/s
14:00 22.4° 1014.8 hPa 1.7 m/s 0.0 mm 24.6° 1012.3 hPa 3.1 m/s 43.4 mm 21.8° 1015.4 hPa 1.3 m/s 0.0 mm 23.6° 1015.3 hPa 2.0 m/s
17:00 22.7° 1014.9 hPa 0.7 m/s 29.7 mm 22.7° 1014.9 hPa 0.7 m/s 29.7 mm
20:00 21.3° 1014.4 hPa 1.5 m/s 29.7 mm 21.3° 1014.4 hPa 1.5 m/s 29.7 mm
23:00 17.0° 1015.5 hPa 0.4 m/s 32.6 mm 17.0° 1015.5 hPa 0.4 m/s 32.6 mm
 06:06     21:01    Daglengte: 14:55 Vrijdag 30 Jul
02:00 17.3° 1015.6 hPa 0.6 m/s 37.4 mm 17.3° 1015.6 hPa 0.6 m/s 37.4 mm
05:00 16.3° 1014.8 hPa 0.9 m/s 38.2 mm 16.3° 1014.8 hPa 0.9 m/s 38.2 mm
08:00 18.3° 1014.5 hPa 0.6 m/s 38.2 mm 18.3° 1014.5 hPa 0.6 m/s 38.2 mm
11:00 23.9° 1012.7 hPa 1.4 m/s 38.3 mm 23.9° 1012.7 hPa 1.4 m/s 38.3 mm
14:00 27.2° 1010.6 hPa 1.9 m/s 38.4 mm 27.2° 1010.6 hPa 1.9 m/s 38.4 mm
17:00 25.4° 1010.5 hPa 0.7 m/s 41.4 mm 25.4° 1010.5 hPa 0.7 m/s 41.4 mm
20:00 22.1° 1010.0 hPa 0.6 m/s 42.9 mm 22.1° 1010.0 hPa 0.6 m/s 42.9 mm
23:00 18.1° 1012.6 hPa 2.3 m/s 54.3 mm 18.1° 1012.6 hPa 2.3 m/s 54.3 mm
 06:07     21:00    Daglengte: 14:53 Zaterdag 31 Jul
02:00 16.6° 1012.3 hPa 1.7 m/s 54.5 mm 16.6° 1012.3 hPa 1.7 m/s 54.5 mm
05:00 15.4° 1012.6 hPa 1.2 m/s 56.9 mm 15.4° 1012.6 hPa 1.2 m/s 56.9 mm
08:00 17.5° 1012.5 hPa 1.0 m/s 57.9 mm 17.5° 1012.5 hPa 1.0 m/s 57.9 mm
11:00 20.5° 1012.1 hPa 1.6 m/s 58.4 mm 20.5° 1012.1 hPa 1.6 m/s 58.4 mm
14:00 20.2° 1011.9 hPa 2.1 m/s 59.0 mm 20.2° 1011.9 hPa 2.1 m/s 59.0 mm
17:00 19.9° 1012.1 hPa 0.3 m/s 59.7 mm 19.9° 1012.1 hPa 0.3 m/s 59.7 mm
20:00 17.2° 1013.0 hPa 0.9 m/s 60.9 mm 17.2° 1013.0 hPa 0.9 m/s 60.9 mm
23:00 14.9° 1014.2 hPa 1.0 m/s 61.8 mm 14.9° 1014.2 hPa 1.0 m/s 61.8 mm
 06:08     20:59    Daglengte: 14:51 Zondag 01 Aug
02:00 14.3° 1013.4 hPa 1.3 m/s 61.9 mm 14.3° 1013.4 hPa 1.3 m/s 61.9 mm
05:00 14.0° 1012.3 hPa 1.5 m/s 62.3 mm 14.0° 1012.3 hPa 1.5 m/s 62.3 mm
08:00 13.3° 1012.3 hPa 1.4 m/s 70.5 mm 13.3° 1012.3 hPa 1.4 m/s 70.5 mm
11:00 12.6° 1014.8 hPa 2.7 m/s 81.7 mm 12.6° 1014.8 hPa 2.7 m/s 81.7 mm
14:00 20.6° 1012.7 hPa 0.7 m/s 82.4 mm 20.6° 1012.7 hPa 0.7 m/s 82.4 mm
17:00 19.4° 1012.5 hPa 2.5 m/s 83.1 mm 19.4° 1012.5 hPa 2.5 m/s 83.1 mm
20:00 16.0° 1013.9 hPa 1.6 m/s 85.6 mm 16.0° 1013.9 hPa 1.6 m/s 85.6 mm
23:00 12.8° 1016.2 hPa 1.9 m/s 86.7 mm 12.8° 1016.2 hPa 1.9 m/s 86.7 mm
 06:09     20:57    Daglengte: 14:48 Maandag 02 Aug
02:00 13.6° 1016.6 hPa 1.2 m/s 87.2 mm 13.6° 1016.6 hPa 1.2 m/s 87.2 mm
05:00 11.6° 1016.6 hPa 1.5 m/s 87.3 mm 11.6° 1016.6 hPa 1.5 m/s 87.3 mm
08:00 14.2° 1017.1 hPa 0.7 m/s 87.3 mm 14.2° 1017.1 hPa 0.7 m/s 87.3 mm
11:00 19.3° 1016.7 hPa 1.2 m/s 87.4 mm 19.3° 1016.7 hPa 1.2 m/s 87.4 mm
14:00 20.7° 1016.2 hPa 2.0 m/s 87.7 mm 20.7° 1016.2 hPa 2.0 m/s 87.7 mm
20:00 17.9° 1016.5 hPa 0.6 m/s 88.2 mm 17.9° 1016.5 hPa 0.6 m/s 88.2 mm
 06:11     20:56    Daglengte: 14:45 Dinsdag 03 Aug
02:00 13.1° 1018.1 hPa 1.8 m/s 88.2 mm 13.1° 1018.1 hPa 1.8 m/s 88.2 mm
08:00 16.4° 1018.8 hPa 0.7 m/s 88.2 mm 16.4° 1018.8 hPa 0.7 m/s 88.2 mm
14:00 23.0° 1017.4 hPa 1.4 m/s 88.6 mm 23.0° 1017.4 hPa 1.4 m/s 88.6 mm
20:00 19.1° 1017.6 hPa 0.2 m/s 89.5 mm 19.1° 1017.6 hPa 0.2 m/s 89.5 mm
 06:12     20:55    Daglengte: 14:43 Woensdag 04 Aug
02:00 14.8° 1018.8 hPa 2.1 m/s 89.5 mm 14.8° 1018.8 hPa 2.1 m/s 89.5 mm
08:00 17.5° 1017.7 hPa 1.3 m/s 89.5 mm 17.5° 1017.7 hPa 1.3 m/s 89.5 mm
14:00 27.9° 1014.5 hPa 2.0 m/s 89.5 mm 27.9° 1014.5 hPa 2.0 m/s 89.5 mm
20:00 21.9° 1015.0 hPa 1.2 m/s 90.0 mm 21.9° 1015.0 hPa 1.2 m/s 90.0 mm
 06:13     20:53    Daglengte: 14:40 Donderdag 05 Aug
02:00 17.1° 1015.4 hPa 1.6 m/s 90.7 mm 17.1° 1015.4 hPa 1.6 m/s 90.7 mm
08:00 18.3° 1014.0 hPa 1.0 m/s 91.3 mm 18.3° 1014.0 hPa 1.0 m/s 91.3 mm
14:00 23.0° 1014.0 hPa 1.9 m/s 2.2 mm
20:00 18.9° 1013.0 hPa 0.1 m/s 3.7 mm
 06:14     20:52    Daglengte: 14:38 Vrijdag 06 Aug
02:00 15.7° 1013.4 hPa 1.3 m/s 2.8 mm
08:00 16.1° 1012.7 hPa 0.9 m/s 3.6 mm
14:00 20.0° 1011.6 hPa 1.8 m/s 3.5 mm
20:00 17.0° 1011.5 hPa 1.1 m/s 4.8 mm
 06:16     20:50    Daglengte: 14:34 Zaterdag 07 Aug
02:00 13.9° 1013.0 hPa 1.3 m/s 4.8 mm
08:00 14.3° 1013.0 hPa 1.0 m/s 2.8 mm
14:00 19.1° 1012.3 hPa 2.3 m/s 2.6 mm
20:00 15.9° 1013.4 hPa 1.4 m/s 4.1 mm
 06:17     20:48    Daglengte: 14:31 Zondag 08 Aug
02:00 12.7° 1015.9 hPa 1.6 m/s 2.9 mm
08:00 13.9° 1016.2 hPa 1.2 m/s 0.6 mm
14:00 19.9° 1015.3 hPa 2.3 m/s 0.7 mm
20:00 16.8° 1016.2 hPa 0.5 m/s 1.6 mm
 06:18     20:47    Daglengte: 14:29 Maandag 09 Aug
02:00 13.4° 1018.4 hPa 1.5 m/s 0.0 mm
08:00 14.9° 1018.3 hPa 1.1 m/s 0.7 mm
14:00 21.1° 1017.3 hPa 1.8 m/s 0.8 mm
20:00 17.6° 1018.0 hPa 0.4 m/s 1.1 mm
 06:19     20:45    Daglengte: 14:26 Dinsdag 10 Aug
02:00 14.2° 1020.0 hPa 1.4 m/s 0.8 mm
08:00 15.4° 1019.8 hPa 0.9 m/s 0.6 mm
14:00 22.2° 1018.4 hPa 2.0 m/s 0.9 mm
FMI Hirlam - 7.5 km EWN WRFDA - 12 km DWD ICON - 7 km GFS - 25 km Basiskaart






























































Updatetijd (Europe/Amsterdam) Resolutie Lengte Stap
FMI Hirlam 14:00, 20:00, 02:00, 08:00 7.5 km 49h 1h
EWN WRFDA 10:30, 16:30, 22:30, 04:30 12 km 73h 1h
DWD ICON 11:45, 17:45, 23:45, 05:45 7 km 75h 1h
GFS 14:15, 20:15, 02:15, 08:15 25 km 237h 3h
30+ mm
25-30 mm
20-25 mm
15-20 mm
10-15 mm
6-10 mm
4-6 mm
2-4 mm
1-2 mm
0.5-1 mm
0.2-0.5 mm
0.1-0.2 mm
30+ mm
25-30 mm
20-25 mm
15-20 mm
10-15 mm
6-10 mm
4-6 mm
2-4 mm
1-2 mm
0.5-1 mm
0.2-0.5 mm
0.1-0.2 mm